Powrót do katalogu

FENGYUN 1C DEB

AktywnySSO
NORAD 31369·DEBRIS·🇨🇳 China

Wystrzelony May 10, 1999 z Taiyuan Satellite Launch Center

Loading…

Następne Przeloty (najbliższe 24 godziny)

TLE

Starzejące sięSource: Space-Track

Epoka: Sep 9, 2026, 04:16 UTC

1 31369U 99025BRZ 26252.17810383  .00000221  00000-0  12327-3 0  9998
2 31369  98.6470 231.7174 0053947 237.8394 182.9537 14.19671459681644

Śledź FENGYUN 1C DEB w czasie rzeczywistym z AllMySat

Download on the App Store